RH
64 63 63 62 62 57 54 48 45 43 42 39 38 38 39 44 51 48 49 58 76 92 93 91 87 81 82 80 82 85 82 78 75 75 78 78 78 79 80 80 79 79 79
66 65 65 65 62 58 57 53 51 48 47 44 43 42 40 41 48 50 42 47 51 48 56 74 72 72 74 76 75 74 76 76 77 79 82 79 82 82 80 80 80 79 78
66 69 71 72 72 66 63 57 53 53 52 52 53 52 46 42 45 49 52 59 60 54 32 17 52 70 68 68 71 72 76 77 77 80 84 80 82 82 81 80 80 78 77
67 70 72 75 74 69 62 59 58 57 58 54 51 52 45 42 46 51 58 63 60 57 30 34 36 21 61 66 69 72 74 76 77 80 78 78 79 80 78 80 78 77 77
66 68 70 73 72 68 65 62 61 62 62 53 52 52 45 48 53 56 52 47 45 42 33 42 39 38 27 45 65 68 72 74 73 77 78 75 79 78 77 78 78 78 78
65 64 71 74 72 68 67 66 67 65 56 46 53 54 47 51 53 53 48 43 40 37 36 40 40 43 27 9 40 55 69 71 74 76 74 78 77 80 79 77 78 77 76
69 66 74 74 70 68 67 67 68 64 55 52 55 54 53 54 56 57 54 43 37 38 32 30 25 20 17 12 10 10 62 71 75 77 77 77 78 78 78 77 76 77 76
72 74 76 74 74 71 70 69 68 65 63 57 60 55 73 60 58 58 57 47 32 32 32 34 28 25 19 12 11 13 14 38 78 75 76 79 78 80 78 77 76 76 74
73 75 75 76 76 74 72 72 70 67 65 63 67 61 70 76 62 58 62 49 28 28 32 37 36 32 23 15 15 17 11 16 77 75 76 82 80 79 78 78 76 75 73
68 74 76 78 79 74 73 70 68 68 64 57 57 54 55 48 66 74 64 60 39 29 28 37 36 33 28 18 17 25 20 36 73 73 77 82 79 78 78 77 76 73 70
72 77 77 80 79 73 77 72 68 66 64 57 52 50 46 34 34 42 68 50 36 30 30 30 38 37 33 26 24 24 34 67 68 73 81 79 78 79 78 78 75 72 71
76 77 75 81 79 74 74 70 70 67 55 54 49 48 45 43 35 33 39 33 28 30 26 32 37 40 40 37 25 30 37 62 67 74 76 77 77 78 78 76 74 73 73
79 79 75 82 80 77 73 68 57 54 48 46 44 40 37 31 26 27 28 30 30 27 30 31 38 38 42 37 30 46 38 53 68 73 71 72 75 79 77 74 75 75 76
73 65 69 80 81 80 73 68 54 49 46 38 30 24 21 23 21 22 26 30 42 31 31 36 36 38 40 29 44 48 35 39 70 68 68 73 76 76 76 78 79 90 91
68 71 69 75 82 81 75 69 56 46 36 28 25 23 20 22 20 20 22 23 33 47 45 36 29 36 32 42 46 46 40 41 63 64 72 72 75 76 78 82 81 87 91
67 72 75 81 84 83 79 70 60 45 36 28 24 24 24 25 22 20 22 25 27 40 51 37 37 40 44 47 52 50 42 48 55 68 73 76 74 75 83 81 85 88 96
74 74 74 78 83 85 82 74 62 46 35 30 31 29 32 33 26 23 20 22 35 37 55 46 40 43 50 53 51 48 51 58 63 71 77 76 73 83 84 84 88 94 98
74 75 75 83 85 85 81 76 62 45 34 32 36 34 36 39 31 27 31 38 44 51 49 55 52 48 53 53 58 52 62 57 66 73 78 75 82 85 86 88 91 100 99
76 79 80 85 85 82 79 76 64 47 37 29 28 25 26 26 27 30 34 45 46 46 49 61 62 55 55 57 58 64 64 59 75 70 76 77 88 85 89 87 97 98 99
81 83 82 82 83 81 78 74 60 47 39 31 27 25 25 31 32 33 37 37 42 50 57 62 62 58 58 61 68 78 79 81 81 75 73 73 84 76 91 93 98 98 100
84 80 84 84 82 79 77 70 57 48 39 31 31 32 30 30 33 32 33 45 49 52 56 64 62 63 68 74 84 87 95 90 84 79 77 76 82 75 80 84 96 98 98
85 85 84 82 79 77 74 67 58 47 32 29 35 33 30 31 17 13 14 24 32 40 50 61 68 77 78 86 87 95 93 90 89 89 96 83 83 79 81 86 99 99 98
86 85 83 80 76 70 68 57 53 41 30 31 27 32 28 20 17 25 33 52 59 60 60 62 73 81 88 91 96 90 90 93 96 94 95 94 82 83 77 89 98 99 98
88 85 83 79 74 71 60 53 44 34 30 34 35 38 35 31 32 36 71 81 71 65 64 63 70 79 88 96 93 88 90 91 88 90 94 97 85 91 73 88 86 92 98
92 90 88 81 82 86 76 67 52 47 55 55 40 38 42 34 35 37 72 71 64 64 69 77 80 68 95 94 94 94 92 92 92 89 96 93 90 93 78 80 78 83 96
97 96 97 92 96 92 88 76 75 70 54 54 60 54 49 46 61 69 68 71 58 66 51 51 57 69 80 84 86 92 97 100 100 86 82 99 95 94 90 79 83 83 97
Wind_Speed
9 10 9 8 7 7 7 7 9 9 9 10 10 10 12 11 7 9 11 12 14 16 16 16 17 18 18 18 18 18 19 19 20 20 20 20 21 22 22 22 23 24 25
10 11 9 9 9 8 7 9 7 7 7 7 8 10 9 10 10 8 10 12 11 12 14 16 17 17 18 18 18 19 20 20 20 21 21 22 22 22 23 24 24 25 26
10 10 9 8 6 7 7 7 8 8 7 7 8 8 9 10 11 9 11 11 11 12 13 13 15 17 18 19 19 20 21 21 22 22 22 22 23 24 24 25 25 26 27
10 9 9 7 7 7 7 8 7 7 7 8 8 8 11 12 12 12 11 10 10 8 12 14 16 16 17 18 19 21 21 21 22 22 23 24 24 24 25 25 26 27 28
10 9 9 7 6 7 6 5 6 7 6 7 9 10 11 11 11 9 9 9 8 7 10 12 13 14 16 18 19 21 21 22 22 23 23 24 24 25 26 26 27 27 28
9 8 8 8 5 6 5 6 4 7 8 9 10 10 11 11 10 9 8 7 7 7 9 9 9 11 13 18 18 21 21 22 22 24 24 25 25 26 26 27 28 30 31
10 8 8 7 6 5 6 6 6 6 11 9 13 11 9 7 7 6 6 5 5 6 7 7 7 10 12 16 19 20 23 23 23 24 25 25 26 27 28 29 30 32 33
11 10 9 8 6 6 6 6 7 7 6 10 3 8 2 3 5 6 6 4 5 4 6 6 7 10 11 16 20 21 25 25 23 24 26 27 28 28 30 31 33 34 35
11 11 10 10 8 6 6 6 8 7 7 7 5 3 2 3 9 8 6 6 5 3 4 4 8 9 12 15 21 21 26 26 23 24 27 28 28 29 31 32 33 35 37
14 13 12 11 9 8 7 6 7 9 7 7 6 4 3 3 3 1 9 7 3 1 3 2 4 8 13 16 21 23 26 26 23 25 29 28 29 30 31 34 35 36 37
18 16 15 12 10 9 8 7 8 8 7 9 5 7 4 6 5 3 3 6 6 4 2 1 4 8 12 15 23 26 26 24 25 27 27 27 28 31 33 34 35 36 38
20 18 16 14 11 11 10 9 9 9 9 10 9 7 6 3 2 3 4 3 3 4 2 1 3 8 11 16 24 24 27 24 25 27 26 27 29 31 33 33 35 36 37
24 21 18 18 15 13 11 10 10 10 10 10 9 9 8 8 7 8 6 3 2 4 3 3 2 6 10 19 24 24 28 25 25 24 25 27 29 31 32 34 36 36 37
29 24 20 21 18 16 15 12 12 13 12 11 11 10 10 8 7 7 6 4 0 1 2 3 2 5 12 22 20 22 26 27 23 24 26 28 30 31 32 34 34 36 36
30 27 25 25 22 20 18 16 15 14 13 13 12 12 10 9 8 7 7 5 4 2 2 2 0 6 18 19 19 22 26 24 23 25 26 28 30 30 34 33 35 35 36
30 29 27 26 25 23 20 19 17 16 15 15 14 13 12 11 9 8 6 5 4 4 1 1 4 12 16 17 19 21 25 25 26 26 26 28 27 29 31 32 34 35 33
32 31 30 30 30 27 24 23 21 20 18 17 16 15 13 11 10 8 6 4 3 2 2 3 7 15 17 19 21 25 25 26 29 27 27 27 27 30 31 32 33 33 35
34 35 33 32 32 32 29 28 26 24 23 22 19 17 15 13 10 7 5 3 2 1 2 7 13 18 19 20 20 24 25 28 28 27 24 24 30 28 31 30 30 33 34
38 38 36 35 36 36 34 31 29 28 26 24 23 21 18 15 12 9 6 4 2 2 3 7 11 16 18 18 23 23 26 27 28 21 23 27 27 28 28 27 27 31 32
41 41 39 38 39 40 36 33 32 30 28 25 23 20 17 14 12 10 8 5 3 2 2 7 10 14 16 18 20 22 26 27 28 18 26 29 26 27 25 23 22 27 26
43 44 43 41 41 39 37 38 37 33 28 25 23 21 18 15 13 10 9 6 5 2 2 6 9 12 14 20 18 23 20 23 26 15 33 31 28 30 29 23 22 25 25
44 45 45 44 43 41 41 41 37 32 31 30 28 22 19 15 11 9 8 7 5 2 1 4 6 10 13 14 19 19 17 22 12 13 31 29 20 29 27 19 20 23 23
43 44 42 40 38 37 38 40 37 34 33 31 26 22 17 14 10 8 5 4 3 2 3 4 7 10 14 15 14 15 16 18 17 26 23 19 19 28 26 14 19 22 20
41 40 39 38 37 34 34 34 33 33 32 28 23 18 15 13 11 7 7 5 3 2 3 4 7 11 13 11 11 12 15 16 23 21 18 7 24 27 23 10 23 23 18
34 35 34 37 35 32 33 31 31 30 27 22 21 17 12 11 10 10 8 6 4 3 2 4 9 9 7 7 8 11 14 16 13 21 7 22 19 25 17 12 22 24 18
33 32 29 32 31 37 35 35 33 32 29 25 18 16 14 12 11 10 10 9 6 4 4 6 5 4 5 7 9 9 11 13 14 8 8 22 18 20 10 6 25 23 21
Wind_Direction
126 123 123 120 111 104 99 100 99 101 91 87 88 95 95 94 79 74 88 89 89 79 69 59 52 48 46 43 40 36 29 24 20 16 13 10 7 4 0 357 354 351 347
135 133 124 119 114 118 119 112 106 96 104 108 112 104 104 104 90 79 84 90 83 68 60 55 52 51 47 44 37 31 27 22 19 16 14 10 6 3 360 356 353 349 345
140 134 127 126 134 123 99 93 102 96 95 99 96 100 97 97 106 91 75 70 57 49 42 43 53 54 48 42 36 30 25 20 17 14 11 7 3 360 355 351 348 345 342
142 137 140 129 121 122 121 121 112 112 107 105 104 103 108 112 109 110 110 91 62 42 33 39 42 42 46 42 36 30 24 19 14 11 8 4 359 356 352 348 345 342 339
148 145 144 135 128 121 127 107 122 105 115 114 116 117 118 114 114 116 100 90 81 49 43 40 32 29 39 37 33 26 19 15 11 7 4 360 356 352 349 347 343 340 337
160 156 149 132 139 135 130 130 130 136 111 118 114 123 120 119 120 117 105 83 78 54 57 49 34 30 27 27 26 21 15 10 8 5 1 357 353 349 346 343 341 339 336
169 166 161 162 154 157 145 145 132 117 130 134 118 109 110 127 137 127 114 89 68 43 48 44 43 32 25 21 15 11 11 7 5 1 358 354 350 348 345 342 340 337 336
177 176 178 172 171 179 170 166 162 150 157 174 175 145 139 143 161 154 150 110 80 61 32 33 31 29 19 15 8 3 2 2 1 358 355 351 349 347 345 342 340 336 333
192 185 185 185 186 174 184 183 182 184 167 187 202 187 142 182 152 183 180 150 117 95 37 20 10 11 9 8 2 357 355 358 357 355 352 350 348 346 343 341 338 335 334
195 191 189 192 194 180 198 188 179 188 177 174 169 186 166 127 159 139 178 191 197 145 70 75 347 350 359 1 357 351 350 355 354 353 350 348 346 343 341 339 338 336 333
195 195 199 196 198 189 190 200 183 175 173 177 190 160 137 102 90 132 169 179 178 138 70 330 305 335 351 352 351 345 352 354 352 349 349 346 344 343 342 340 339 337 333
193 200 199 197 204 198 200 185 179 185 179 178 168 161 154 154 120 113 106 120 157 163 303 187 293 334 341 344 346 346 351 352 349 346 346 344 344 343 343 341 339 336 335
192 199 202 197 203 206 201 194 183 173 171 170 166 155 149 131 136 118 116 114 179 204 179 177 327 322 328 338 347 347 348 349 344 345 344 343 344 345 344 342 340 339 337
204 210 211 201 205 207 206 196 182 178 178 173 164 156 148 141 142 139 143 151 32 266 183 154 4 303 329 338 349 340 344 347 345 344 343 344 345 346 345 342 341 338 339
211 209 208 205 206 210 206 198 192 188 183 175 169 165 159 149 148 136 131 134 138 137 280 118 336 306 330 343 346 342 348 352 348 344 344 345 346 346 345 344 342 341 341
211 208 209 206 207 209 205 202 195 193 189 179 177 175 170 167 158 148 142 134 133 151 201 291 319 330 339 345 347 346 350 354 351 345 346 345 347 346 346 346 343 343 340
205 203 207 207 209 208 205 206 201 195 191 186 185 183 174 171 162 158 154 150 144 151 186 289 307 339 346 346 347 348 354 352 349 348 344 345 347 348 349 347 346 346 343
206 203 207 207 209 207 206 206 200 198 195 190 188 183 175 178 170 163 151 142 139 303 315 311 318 340 345 346 344 347 352 350 351 347 349 350 348 351 349 349 350 349 350
202 201 207 207 211 209 207 206 205 202 200 196 191 187 182 179 173 168 166 176 200 239 326 310 313 334 338 345 343 348 347 350 353 358 358 346 352 351 350 350 352 358 358
201 202 208 212 213 210 206 202 203 203 200 195 188 183 181 181 179 175 177 182 211 267 349 306 316 331 338 342 345 346 342 349 347 356 351 351 353 352 351 349 353 1 7
203 207 207 209 210 208 204 203 203 201 194 184 181 177 178 183 185 180 182 186 210 232 316 314 332 333 340 345 351 340 341 342 340 359 344 347 347 354 358 4 4 2 9
199 202 204 207 207 206 206 203 204 197 191 184 176 176 175 177 181 188 196 195 202 173 286 318 335 330 329 339 336 343 344 346 349 338 340 335 351 345 358 7 2 4 12
198 201 201 204 204 203 202 203 200 193 187 181 178 173 169 170 177 180 157 160 138 92 307 325 321 311 317 325 336 340 344 335 330 330 337 318 348 341 357 20 10 6 14
201 202 202 201 202 198 194 195 194 184 177 174 173 170 175 174 178 185 186 192 185 198 269 297 292 302 308 331 334 334 332 329 334 342 350 304 337 339 355 26 8 9 4
201 203 204 195 189 175 180 174 177 170 165 168 167 170 184 186 186 188 194 191 190 187 236 271 280 305 326 335 341 335 346 341 336 336 345 348 337 339 343 8 354 359 4
202 196 190 197 190 180 188 178 178 177 166 163 170 171 182 209 192 182 182 192 180 222 274 287 296 327 349 337 337 344 346 339 333 330 329 336 332 350 332 329 337 350 1